Regional Weather Roundup
Issued by NWS

Home | Current Version | Previous Version | Text Only | Print | Product List | Glossary On
Versions: 1 2 3 4 5 6 7 8 9 10 11 12 13 14 15 16 17 18 19 20 21 22 23 24 25 26 27 28 29 30 31 32 33 34 35 36 37 38 39 40 41 42 43 44 45 46 47 48 49 50
000
ASUS43 KLOT 270908
RWRIL

ILLINOIS REGIONAL WEATHER ROUNDUP
NATIONAL WEATHER SERVICE CHICAGO/ROMEOVILLE IL
400 AM CDT WED MAY 27 2015

NOTE: "FAIR" INDICATES FEW OR NO CLOUDS BELOW 12,000 FEET WITH NO
SIGNIFICANT WEATHER AND/OR OBSTRUCTIONS TO VISIBILITY.

* THESE STATIONS ARE NOT UNDER NWS QUALITY CONTROL. THEY ALSO MAY NOT
  REPORT WEATHER SUCH AS PRECIPITATION OR FOG.

ILZ001-002-007-009-015-016-024-271000-
NORTHWEST ILLINOIS

CITY           SKY/WX    TMP DP  RH WIND       PRES   REMARKS
MOLINE         CLEAR     62  58  86 SW9       29.88R
STERLING*      CLEAR     63  59  88 W10       29.88R
SAVANNA*       CLOUDY    64  60  87 W12       29.86R
$$

ILZ003-004-008-010-011-017-018-271000-
NORTH CENTRAL ILLINOIS

CITY           SKY/WX    TMP DP  RH WIND       PRES   REMARKS
ROCKFORD       MOCLDY    64  60  87 SW12      29.86R
FREEPORT*      CLOUDY    62  60  94 SW9       29.87R
ROCHELLE*      PTCLDY    62  60  94 SW13      29.87R
DE KALB*       MOCLDY    61  59  94 SW10      29.87S
PERU*          MOCLDY    64  62  91 SW10      29.90R
$$

ILZ005-006-012>014-019>023-271000-
NORTHEAST ILLINOIS

CITY           SKY/WX    TMP DP  RH WIND       PRES   REMARKS
CHICAGO-OHARE  PTCLDY    65  61  87 SW9       29.85R
CHICAGO-MIDWAY PTCLDY    68  62  81 SW15      29.86R
AURORA         CLEAR     66  60  81 SW12      29.87R
LANSING*       PTCLDY    65  59  79 SW10      29.89R
JOLIET*        PTCLDY    67  63  87 SW8       29.89R
WAUKEGAN       MOCLDY    63  62  97 SW9       29.83R
DUPAGE AIRPORT CLEAR     64  61  90 SW12      29.86R
KANKAKEE*      CLEAR     64  61  88 SW13      29.92R
WHEELING       PTCLDY    65  61  87 SW9       29.86R
MORRIS*        CLEAR     64  61  89 SW8       29.88R
ROMEOVILLE*    CLEAR     65  61  86 SW13      29.88R
NORTHERLY ISL    N/A     67  60  78 SW8         N/A
$$

LMZ740>746-271000-
SOUTHERN LAKE MICHIGAN

STATION/POSITION SKY/WX   TEMP    WIND        PRES    VSBY  WAVE
                          AIR SEA DIR/SP/G                  HT/PER
                          (F)     (DEG/KT/KT) (MB)    (MI)  (FT/S)
SOUTHERN BUOY              44 38  200/ 10/ 12 1010.8R         2/ 4
HARRISON CRIB              67     210/ 20/ 25   N/A
BURNHAM HARBOR             67     260/  6/ 11   N/A
CALUMET HARBOR             67     200/  7/ 15   N/A
BURNS HARBOR               69     220/ 16/ 24 1012.2R
MICHIGAN CITY              68     180/ 15/ 19   N/A
MICHIGAN CITY 6N           63 52  220/ 14/ 17   N/A           2/ 3
ST. JOSEPH                 61 55  230/ 12/ 12   N/A           3/ 4
$$

ILZ025>027-034>036-040-047-049-050-058-095>099-271000-
WEST-CENTRAL ILLINOIS

CITY           SKY/WX    TMP DP  RH WIND       PRES   REMARKS
QUINCY         CLOUDY    66  62  87 S7        29.95R
GALESBURG*     CLEAR     61  59  92 SW7       29.92R
MACOMB*        MOCLDY    63  62  96 SW5       29.95R
JACKSONVILLE*  CLOUDY    69  63  82 SW8       29.95S
PITTSFIELD*    CLOUDY    65  62  89 SE5       29.97R THUNDER
$$

ILZ028>032-037-038-041>044-048-051>054-059>061-271000-
CENTRAL ILLINOIS

CITY           SKY/WX    TMP DP  RH WIND       PRES   REMARKS
PONTIAC        PTCLDY    67  64  87 SW12G17   29.93R
BLOOMINGTON    PTCLDY    65  63  93 SW12      29.95R
DECATUR        MOCLDY    67  61  81 SW14      29.97R
PEORIA         MOCLDY    68  63  84 SW9       29.92R
LACON*         MOCLDY    65  61  88 SW6       29.91R
LINCOLN*       MOCLDY    68  62  79 SW6       29.93R
SPRINGFIELD    LGT RAIN  68  63  84 SW12      29.96R
TAYLORVILLE    FAIR      64  61  88 S12       29.97S
$$

ILZ033-039-045-046-055>057-062-063-271000-
EAST-CENTRAL ILLINOIS

CITY           SKY/WX    TMP DP  RH WIND       PRES   REMARKS
CHAMPAIGN      PTCLDY    65  60  84 S13       29.97R
DANVILLE*      CLEAR     65  61  87 SW12      29.95R
RANTOUL*       PTCLDY    67  62  83 SW10G16   29.96R
MATTOON        CLEAR     66  62  87 SW12      29.99R
PARIS*         CLEAR     67  63  87 SW16      30.01R
$$

ILZ079-100>102-271000-
SOUTHWEST ILLINOIS

CITY           SKY/WX    TMP DP  RH WIND       PRES   REMARKS
ALTON          PTCLDY    66  66 100 S9        29.99S
BELLEVILLE     PTCLDY    65  65  99 S6        29.99S
CAHOKIA*       PTCLDY    68  62  81 S7        29.99S
SPARTA*        PTCLDY    66  63  90 SW8       30.02R
$$

ILZ064>066-069>071-074>076-080>082-084>086-088>090-092>094-271000-
SOUTH-CENTRAL ILLINOIS

CITY           SKY/WX    TMP DP  RH WIND       PRES   REMARKS
CARBONDALE     CLEAR     67  62  84 SW9       30.02F
CAIRO*         PTCLDY    64  63  96 S3        30.05S
EFFINGHAM*     PTCLDY    65  61  86 S7        30.02S
MARION         CLEAR     64  63  94 S3        30.04S
MT. VERNON     CLEAR     64  59  82 S6        30.03S
CENTRALIA*     CLEAR     65  61  88 SW6       30.02R
SALEM*         CLEAR     68  63  85 SW8       30.01F
METROPOLIS*    CLEAR     63  63 100 S3        30.05S
$$

ILZ067-068-072-073-078-083-087-091-271000-
SOUTHEAST ILLINOIS

CITY           SKY/WX    TMP DP  RH WIND       PRES   REMARKS
LAWRENCEVILLE  CLEAR     64  61  90 S5        30.04R
FLORA*         CLEAR     65  62  89 SW7       30.03R
FAIRFIELD*     CLEAR     65  62  91 S3        30.03R
HARRISBURG*    CLEAR     64  63  96 CALM      30.05R
ROBINSON*      CLEAR     66  62  87 SW10      30.03R
CARMI*         CLEAR     63  57  82 S7        30.03S
$$

ABBREVIATIONS USED IN REMARKS
   TC - TEMPERATURE IN CELSIUS
  WCI - WIND CHILL INDEX
   HX - HEAT INDEX
  VSB - VISIBILITY
$$



USA.gov is the U.S. government's official web portal to all federal, state and local government web resources and services.